Total_Precipitation_Accumulation
1.83 1.78 1.77 1.65 1.65 1.69 1.68 1.78 2.00 1.79 1.23 0.95 0.91 0.91 0.90 0.96 1.10 1.04 0.93 1.08 1.22 1.23 1.32 1.40 1.47 1.57 1.90 2.64 3.69 4.44 4.40 3.79 3.13 2.87 3.09 3.57 4.11 4.63
1.82 1.87 1.84 1.71 1.63 1.66 1.68 1.65 1.69 1.84 1.56 1.00 0.92 0.96 1.00 1.01 1.15 1.06 1.02 1.18 1.22 1.17 1.22 1.30 1.39 1.52 1.66 1.96 2.59 3.61 4.29 4.25 3.71 3.25 3.20 3.47 3.79 4.31
1.71 1.76 1.76 1.69 1.69 1.67 1.65 1.58 1.52 1.62 1.69 1.11 0.90 0.94 1.03 1.09 1.14 1.11 1.09 1.10 1.10 1.12 1.16 1.26 1.34 1.44 1.59 1.78 2.06 2.69 3.61 4.19 4.25 3.88 3.66 3.68 3.76 3.90
1.79 1.72 1.69 1.71 1.79 1.74 1.68 1.58 1.49 1.45 1.60 1.41 1.03 0.99 1.06 1.13 1.19 1.22 1.23 1.21 1.15 1.25 1.27 1.29 1.36 1.40 1.53 1.70 1.89 2.19 2.78 3.59 4.15 4.18 3.90 3.70 3.60 3.71
2.03 2.00 1.90 1.85 1.92 1.90 1.81 1.65 1.52 1.43 1.45 1.47 1.21 1.05 1.10 1.18 1.32 1.34 1.32 1.30 1.22 1.31 1.36 1.40 1.43 1.41 1.46 1.58 1.75 1.95 2.21 2.63 3.25 3.87 4.14 3.97 3.68 3.60
2.21 2.14 2.16 2.13 2.08 2.04 2.02 1.80 1.59 1.53 1.48 1.51 1.36 1.16 1.11 1.17 1.44 1.57 1.55 1.47 1.39 1.28 1.35 1.39 1.47 1.47 1.46 1.46 1.53 1.68 1.94 2.33 2.78 3.39 3.99 4.15 3.85 3.63
2.00 1.93 2.00 2.18 2.27 2.27 2.28 2.09 1.90 1.88 1.79 1.75 1.59 1.39 1.25 1.33 1.56 1.64 1.73 1.66 1.64 1.48 1.34 1.28 1.27 1.28 1.31 1.40 1.48 1.60 1.81 2.06 2.35 2.83 3.46 4.01 4.08 3.91
1.85 1.76 1.75 1.90 1.98 2.06 2.20 2.22 2.24 2.29 2.24 2.08 1.88 1.66 1.40 1.33 1.46 1.77 1.93 2.04 2.09 1.72 1.53 1.47 1.33 1.37 1.34 1.34 1.48 1.52 1.71 1.97 2.21 2.50 2.94 3.49 3.96 4.12
1.58 1.59 1.59 1.60 1.71 1.60 1.76 1.91 1.99 2.17 2.31 2.27 2.20 1.83 1.57 1.47 1.67 1.93 2.01 2.12 2.08 1.86 1.85 1.95 1.68 1.57 1.48 1.51 1.61 1.58 1.72 1.93 2.11 2.33 2.64 3.04 3.57 4.03
1.55 1.45 1.43 1.44 1.59 1.65 1.68 1.67 1.58 1.67 1.92 2.07 2.17 1.97 1.75 1.75 2.00 2.26 2.38 2.40 2.25 2.11 2.05 2.27 1.95 1.77 1.67 1.63 1.71 1.68 1.71 1.82 2.00 2.20 2.42 2.64 3.02 3.50
1.64 1.57 1.51 1.37 1.68 1.84 1.71 1.62 1.48 1.49 1.64 1.93 2.11 2.14 2.16 2.25 2.40 2.68 2.85 2.92 2.80 2.40 2.16 2.31 2.16 1.93 1.89 1.94 1.92 1.87 1.72 1.71 1.84 2.03 2.14 2.29 2.51 2.92
1.61 1.59 1.75 1.70 1.82 1.81 1.61 1.64 1.64 1.44 1.38 1.46 1.55 1.66 1.68 1.77 2.10 2.33 2.61 2.90 2.85 2.77 2.29 2.28 2.30 2.26 2.54 2.21 1.90 1.67 1.56 1.59 1.67 1.76 1.84 1.96 2.12 2.21
1.68 1.60 1.61 1.82 1.79 1.73 1.66 1.60 1.71 1.52 1.37 1.42 1.44 1.44 1.47 1.58 1.68 1.88 2.17 2.49 2.77 2.74 2.28 2.46 2.73 2.49 2.65 2.46 2.07 1.74 1.48 1.36 1.40 1.56 1.67 1.78 1.86 1.89
1.66 1.47 1.49 1.71 1.71 1.73 1.66 1.72 1.77 1.68 1.52 1.50 1.43 1.37 1.41 1.52 1.59 1.68 1.88 2.07 2.25 2.39 2.20 2.42 3.00 2.80 2.71 2.41 2.15 1.96 1.68 1.44 1.35 1.40 1.43 1.68 1.76 1.82
1.75 1.79 1.73 1.76 1.70 1.57 1.59 1.65 1.63 1.56 1.61 1.58 1.42 1.31 1.29 1.40 1.49 1.61 1.71 1.85 1.98 2.09 2.19 2.28 2.63 2.77 2.81 2.64 2.16 1.93 1.93 1.81 1.49 1.39 1.37 1.41 1.51 1.62
1.85 1.85 1.83 1.80 1.68 1.60 1.61 1.51 1.40 1.48 1.60 1.55 1.43 1.35 1.31 1.37 1.48 1.56 1.70 1.77 1.99 2.07 2.10 2.18 2.37 2.73 2.84 2.36 2.16 2.00 1.79 1.98 1.75 1.40 1.31 1.35 1.40 1.42
1.90 1.87 1.78 1.71 1.68 1.57 1.47 1.40 1.38 1.46 1.50 1.40 1.42 1.46 1.43 1.44 1.47 1.49 1.65 1.75 1.92 1.93 2.04 2.20 2.27 2.46 2.64 2.54 2.43 2.06 1.75 1.65 1.59 1.41 1.34 1.46 1.53 1.49
1.91 1.80 1.59 1.49 1.48 1.43 1.41 1.37 1.36 1.37 1.32 1.32 1.38 1.43 1.46 1.48 1.50 1.50 1.58 1.73 1.81 1.77 1.87 2.07 2.28 2.58 2.78 2.81 2.60 2.19 1.87 1.69 1.58 1.44 1.31 1.46 1.70 1.69
1.67 1.49 1.34 1.35 1.35 1.31 1.29 1.27 1.25 1.20 1.24 1.32 1.37 1.39 1.42 1.45 1.50 1.55 1.58 1.66 1.69 1.69 1.78 1.93 2.26 2.64 2.80 2.82 2.86 2.45 2.16 1.89 1.75 1.70 1.51 1.43 1.63 1.67
1.41 1.37 1.32 1.27 1.26 1.26 1.22 1.18 1.14 1.15 1.24 1.35 1.35 1.31 1.34 1.43 1.47 1.47 1.49 1.60 1.68 1.72 1.76 1.83 2.16 2.54 2.79 2.67 2.74 2.69 2.53 2.22 1.97 1.94 1.73 1.52 1.50 1.66
1.36 1.28 1.25 1.24 1.23 1.20 1.18 1.16 1.17 1.20 1.21 1.29 1.32 1.28 1.28 1.38 1.41 1.35 1.39 1.54 1.66 1.74 1.80 1.79 1.93 2.25 2.44 2.39 2.40 2.41 2.53 2.58 2.24 2.03 1.86 1.83 1.83 1.89
1.33 1.33 1.26 1.24 1.23 1.20 1.20 1.21 1.21 1.17 1.15 1.18 1.21 1.22 1.23 1.30 1.34 1.32 1.38 1.49 1.54 1.58 1.67 1.69 1.74 2.08 2.41 2.53 2.40 2.27 2.39 2.54 2.57 2.27 2.01 2.00 2.30 2.65
1.38 1.37 1.31 1.25 1.20 1.17 1.16 1.16 1.16 1.11 1.07 1.10 1.12 1.12 1.16 1.23 1.22 1.25 1.29 1.35 1.39 1.44 1.53 1.65 1.72 1.96 2.30 2.45 2.44 2.27 2.23 2.29 2.38 2.41 2.43 2.15 1.79 1.70